Tracking 18793 objects as of 25-September-2017
HD Live streaming from Space Station
objects crossing your sky now

IRIDIUM 117

Track IRIDIUM 117 now!
10-day predictions
IRIDIUM 117 is classified as:


NORAD ID: 42808
Int'l Code: 2017-039F
Perigee: 783.6 km
Apogee: 786.0 km
Inclination: 86.4 °
Period: 100.4 minutes
Semi major axis: 7155 km
RCS: Unknown
Launch date: June 25, 2017
Source: United States (US)
Launch site: AIR FORCE WESTERN TEST RANGE (AFWTR)
aabbcc
Your satellite tracking list
Your tracking list is empty





NASA's NSSDC Master Catalog

Two Line Element Set (TLE):
1 42808U 17039F   17267.95780872 +.00000077 +00000-0 +20516-4 0  9993
2 42808 086.3950 245.4607 0001701 067.2738 292.8637 14.34217233013141
Source of the keplerian elements: AFSPC